Home   Weather   Sioux Falls   Past weeks

Flag for USA Past Weather in Sioux Falls, South Dakota, USA — Yesterday and Last 2 Weeks

50 °F

Mostly cloudy.

Feels Like: 45 °F
Forecast: 46 / 55 °F
Wind: 14 mph from Southeast

Location: Foss Field

Current Time: Oct 25, 2016 at 8:47:34 AM

Latest Report: Oct 25, 2016 at 7:56 AM

Visibility: 10 mi

Pressure: 30.20 "Hg

Humidity: 74%

Dew Point: 42 °F

Location of Sioux FallsLocation

Past Weather in Sioux Falls — Graph


Sioux Falls Temperature Yesterday

Maximum temperature yesterday: 57 °F (at 2:56 PM)
Minimum temperature yesterday: 32 °F (at 7:56 AM)
Average temperature yesterday: 46 °F

High & Low Weather Summary for the Past Weeks

High74 °F (Oct 14, 3:56 PM)100% (Oct 11, 7:56 AM)30.47 "Hg (Oct 11, 7:56 AM)
Low32 °F (Oct 13, 12:56 AM)37% (Oct 22, 4:56 PM)29.34 "Hg (Oct 17, 3:56 PM)
Average52 °F77%30.01 "Hg
* Reported Oct 10 6:56 AM — Oct 25 6:56 AM, Sioux Falls, Weather by CustomWeather, © 2016

Note: Actual official high and low records may vary slightly from our data, if they occured in-between our weather recording intervals... More about our weather records


Sioux Falls Weather History for the Previous 24 Hours

Scroll right to see more
Time TempWeatherWind HumidityBarometerVisibility
6:56 AM
Tue, Oct 25
50 °FMostly cloudy.9 mph74%30.22 "Hg10 mi
5:56 AM50 °FOvercast.7 mph74%30.22 "Hg10 mi
4:56 AM49 °FMostly cloudy.7 mph77%30.22 "Hg10 mi
3:56 AM49 °FPassing clouds.8 mph74%30.22 "Hg10 mi
2:56 AM48 °FPassing clouds.8 mph74%30.23 "Hg10 mi
1:56 AM48 °FClear.9 mph71%30.26 "Hg10 mi
12:56 AM49 °FClear.9 mph69%30.27 "Hg10 mi
11:56 PM
Mon, Oct 24
50 °FOvercast.10 mph63%30.29 "Hg10 mi
10:56 PM50 °FOvercast.8 mph66%30.30 "Hg10 mi
9:56 PM51 °FOvercast.14 mph61%30.30 "Hg10 mi
8:56 PM50 °FPartly cloudy.12 mph63%30.30 "Hg10 mi
7:56 PM49 °FPassing clouds.9 mph69%30.31 "Hg10 mi
6:56 PM51 °FPassing clouds.10 mph66%30.31 "Hg10 mi
5:56 PM55 °FPartly sunny.12 mph59%30.31 "Hg10 mi
4:56 PM57 °FPartly sunny.10 mph55%30.32 "Hg10 mi
3:56 PM57 °FScattered clouds.13 mph55%30.33 "Hg10 mi
2:56 PM57 °FScattered clouds.10 mph55%30.36 "Hg10 mi
1:56 PM56 °FScattered clouds.12 mph60%30.38 "Hg10 mi
12:56 PM53 °FScattered clouds.10 mph64%30.42 "Hg10 mi
11:56 AM50 °FScattered clouds.12 mph66%30.44 "Hg10 mi
10:56 AM47 °FPassing clouds.12 mph74%30.46 "Hg10 mi
9:56 AM43 °FScattered clouds.7 mph82%30.47 "Hg10 mi
8:56 AM36 °FScattered clouds.3 mph97%30.46 "Hg10 mi
Weather by CustomWeather, © 2016

See weather overviewHow to use our weather pages